EW3232 Weather Reports


time (UTC)temp
F
wind
direction
speed
knots
gust
knots
rain 1hr
in
rain 24hr
in
rain mn
in
humidity
%
barometer
mb
20260510113015 67 161 2.6 7.8 0.00 1.26 0.01 49 1011.9
20260510111626 66 123 6.1 11.3 0.00 1.26 0.01 52 1012.0
20260510110057 67 110 9.6 13.9 0.00 1.26 0.01 51 1012.1
20260510104649 67 89 6.1 12.2 0.00 1.48 0.01 52 1012.1
20260510103017 66 153 6.1 9.6 0.00 1.48 0.01 53 1012.3
20260510101611 66 176 4.3 11.3 0.00 1.48 0.01 54 1012.5
20260510100003 65 132 6.1 11.3 0.00 1.48 0.01 56 1012.6
20260510094517 64 168 8.7 13.9 0.00 1.48 0.01 56 1012.6
20260510093029 64 123 8.7 11.3 0.00 1.48 0.01 57 1012.6
20260510091555 64 121 8.7 13.9 0.00 1.48 0.01 62 1012.5
20260510090033 64 140 5.2 12.2 0.00 1.48 0.01 61 1012.5
20260510084556 63 123 7.0 10.4 0.00 1.48 0.01 57 1012.4
20260510083114 63 111 3.5 9.6 0.00 1.48 0.01 63 1012.3
20260510081606 63 158 2.6 5.2 0.00 1.48 0.01 58 1012.4
20260510080155 62 163 2.6 5.2 0.00 1.48 0.01 60 1012.7
20260510074655 61 187 1.7 3.5 0.00 1.48 0.01 68 1012.6
20260510073108 60 182 0.0 3.5 0.00 1.48 0.01 69 1012.5
20260510071628 59 230 2.6 5.2 0.01 1.48 0.01 67 1012.5
20260510070109 57 227 4.3 6.1 0.01 1.48 0.01 74 1012.2
20260510064613 56 136 0.0 2.6 0.01 1.48 0.01 81 1012.2
20260510063129 53 347 0.0 1.7 0.01 1.48 0.01 88 1012.0
20260510061533 51 347 0.9 1.7 0.00 1.47 0.00 86 1012.2
20260510060151 50 347 0.0 1.7 0.00 1.47 0.00 91 1012.2
20260510054651 48 324 0.0 1.7 0.00 1.47 0.00 92 1011.9
20260510053157 47 356 0.9 1.7 0.00 1.47 0.00 92 1011.8
20260510051505 47 121 0.0 1.7 0.00 1.47 0.00 92 1011.9
20260510050040 47 284 0.9 1.7 0.00 1.47 0.00 92 1011.7
20260510044604 47 284 0.0 1.7 0.00 1.47 0.00 92 1011.7
20260510043117 47 284 0.0 4.3 0.00 1.47 0.00 92 1011.7
20260510041637 47 266 2.6 3.5 0.00 1.47 0.00 93 1011.5
20260510040017 47 264 0.9 1.7 0.00 1.47 0.00 94 1011.4
20260510034606 47 264 0.0 1.7 0.00 1.47 0.00 94 1011.5
20260510033122 47 281 0.0 3.5 0.00 1.47 0.00 94 1011.4
20260510031631 47 251 0.9 4.3 0.00 1.47 0.00 95 1011.5
20260510030119 47 267 1.7 3.5 0.00 1.47 0.00 94 1011.5
20260510024632 48 262 0.9 3.5 0.00 1.47 0.00 94 1011.7
20260510023134 48 342 0.9 3.5 0.00 1.47 0.00 94 1011.7
20260510021647 48 253 0.0 3.5 0.00 1.47 0.00 94 1011.8
20260510020151 48 277 0.0 1.7 0.00 1.47 0.00 94 1011.9
20260510014624 48 280 0.0 2.6 0.00 1.47 0.00 94 1011.8
20260510013103 49 268 1.7 2.6 0.00 1.47 0.00 94 1011.9
20260510011622 49 268 0.0 3.5 0.00 1.47 0.00 94 1012.0
20260510010108 49 263 2.6 5.2 0.00 1.47 0.00 94 1012.1
20260510004622 49 187 0.9 1.7 0.00 1.47 0.00 93 1012.4
20260510003126 49 291 1.7 2.6 0.00 1.47 0.00 93 1012.4
20260510000156 50 266 0.0 2.6 0.00 1.47 0.00 93 1012.5
20260509234556 50 262 0.9 1.7 0.00 1.47 0.00 92 1012.6
20260509233100 51 262 0.0 2.6 0.00 1.47 0.00 92 1012.7
20260509231630 51 271 0.9 1.7 0.00 1.47 0.00 92 1012.7
20260509230012 51 271 0.0 2.6 0.00 1.47 0.00 91 1012.8
20260509224515 52 185 0.9 3.5 0.00 1.47 0.00 91 1012.8
20260509223108 52 264 1.7 7.0 0.00 1.47 0.00 91 1012.9
20260509221629 52 248 2.6 6.1 0.00 1.47 0.00 91 1012.9
20260509220004 53 221 1.7 2.6 0.00 1.47 1.47 91 1012.9
20260509214624 53 247 1.7 6.1 0.00 1.47 1.47 91 1012.9
20260509211518 52 261 3.5 7.0 0.00 1.47 1.47 94 1013.1
20260509210024 52 215 0.0 1.7 0.00 1.47 1.47 93 1013.2
20260509204549 52 214 1.7 3.5 0.00 1.47 1.47 93 1013.1
20260509201519 51 256 1.7 3.5 0.00 1.47 1.47 93 1012.7
20260509194510 52 276 1.7 3.5 0.00 1.47 1.47 92 1012.6
20260509193031 53 358 0.9 5.2 0.00 1.47 1.47 92 1012.0
20260509191555 53 306 0.0 1.7 0.00 1.47 1.47 91 1011.9
20260509190111 54 281 0.9 2.6 0.00 1.47 1.47 91 1011.9
20260509184635 56 21 0.0 3.5 0.00 1.47 1.47 90 1011.5
20260509183124 56 17 3.5 4.3 0.00 1.47 1.47 89 1011.3
20260509181643 57 35 2.6 5.2 0.00 1.47 1.47 89 1011.3
20260509180151 57 284.2 221.6 0.00 1.47 1.47 88 1011.1
20260509174537 57 87 0.9 1.7 0.00 1.47 1.47 87 1011.2
20260509173101 58 29 1.7 4.3 0.00 1.47 1.47 86 1010.9
20260509171658 58 68 4.3 7.8 0.00 1.47 1.47 86 1010.8
20260509170128 59 48 1.7 6.1 0.00 1.47 1.47 80 1010.6
20260509164656 59 29 2.6 5.2 0.00 1.47 1.47 80 1010.6
20260509163011 59 342 0.9 4.3 0.00 1.47 1.47 81 1010.6
20260509161529 58 65 0.0 2.6 0.00 1.47 1.47 82 1010.5
20260509160006 57 264 2.6 5.2 0.00 1.47 1.47 85 1010.7
20260509154542 57 15 0.9 6.1 0.00 1.47 1.47 88 1010.6
20260509153103 56 239 2.6 3.5 0.02 1.47 1.47 89 1010.6
20260509151620 56 342 0.0 2.6 0.04 1.47 1.47 91 1010.4
20260509150059 55 291 0.0 3.5 0.13 1.47 1.47 92 1010.4
20260509144603 55 282 2.6 13.9 0.31 1.47 1.47 93 1010.6
20260509143104 55 26 4.3 9.6 0.43 1.46 1.46 92 1011.7
20260509141540 55 40 0.9 2.6 0.45 1.43 1.43 93 1012.2
20260509140022 55 276 0.9 7.0 0.37 1.34 1.34 93 1012.6
20260509134518 55 266 3.5 7.0 0.21 1.15 1.15 93 1012.7
20260509133010 55 244 1.7 7.0 0.11 1.03 1.03 92 1012.5
20260509131511 55 271 3.5 10.4 0.14 0.98 0.98 91 1012.2
20260509124656 56 193 0.9 2.6 0.36 0.94 0.94 93 1011.3
20260509123102 56 330 0.0 3.5 0.51 0.92 0.92 93 1011.1
20260509121612 54 127 1.7 4.3 0.49 0.84 0.84 91 1011.2
20260509120007 54 328 1.7 7.8 0.54 0.77 0.77 88 1011.3